This is the latest recevied weather packets stored in our database for station/object K4AXV-13. If no packets are shown the sender has not sent any weather packets the latest 10 day(s).
| Time | Temp. | Humidity | Pressure | Rain* | Wind** | Luminosity | Snow |
|---|---|---|---|---|---|---|---|
| 1777589743 | 21.11° C | - | - | 0 mm | 0.45 m/s, 132° | - | - |
| 1777589444 | 21.11° C | - | - | 0 mm | 1.34 m/s, 110° | - | - |
| 1777589143 | 21.11° C | - | - | 0 mm | 0.89 m/s, 141° | - | - |
| 1777588844 | 21.67° C | - | - | 0 mm | 1.34 m/s, 135° | - | - |
| 1777588542 | 21.67° C | - | - | 0 mm | 2.24 m/s, 117° | - | - |
| 1777588243 | 21.67° C | - | - | 0 mm | 1.79 m/s, 121° | - | - |
| 1777587941 | 21.67° C | - | - | 0 mm | 1.34 m/s, 129° | - | - |
| 1777587642 | 21.67° C | - | - | 0 mm | 2.68 m/s, 160° | - | - |
| 1777587340 | 21.67° C | - | - | 0 mm | 0.89 m/s, 110° | - | - |
| 1777587041 | 22.22° C | - | - | 0 mm | 0.45 m/s, 89° | - | - |
| 1777586739 | 21.67° C | - | - | 0 mm | 0.89 m/s, 90° | - | - |
| 1777586441 | 22.22° C | - | - | 0 mm | 1.79 m/s, 165° | - | - |
| 1777585538 | 21.67° C | - | - | 0 mm | 1.34 m/s, 97° | - | - |
| 1777585240 | 22.22° C | - | - | 0 mm | 1.79 m/s, 90° | - | - |
| 1777584938 | 22.22° C | - | - | 0 mm | 0.45 m/s, 82° | - | - |
| 1777584639 | 22.22° C | - | - | 0 mm | 1.34 m/s, 100° | - | - |
| 1777584038 | 22.22° C | - | - | 0 mm | 1.34 m/s, 117° | - | - |
| 1777583737 | 22.22° C | - | - | 0 mm | 0.89 m/s, 101° | - | - |
| 1777583438 | 22.78° C | - | - | 0 mm | 0.89 m/s, 93° | - | - |
| 1777582837 | 22.78° C | - | - | 0 mm | 0.89 m/s, 82° | - | - |
| 1777582535 | 22.78° C | - | - | 0 mm | 0 m/s | - | - |
| 1777581935 | 22.78° C | - | - | 0 mm | 1.34 m/s, 77° | - | - |
| 1777577513 | 18.89° C | - | - | 0 mm | 0 m/s | - | - |
| 1777574727 | 22.22° C | - | - | 0 mm | 0 m/s | - | - |
| 1777573825 | 22.22° C | - | - | 0 mm | 0 m/s | - | - |
* Rain latest hour (hover to see other rain measurements)
** Current wind speed in m/s (hover to see current wind gust speed)